Location: Unspecified
(0.0000°N, 0.0000°E)
Time: 04:37:47
(UTC+00:00)

S-56A Canister/Altair - All Passes

Search period start: 21 May 2026 00:00
Search period end: 31 May 2026 00:00
Orbit: 633 x 2484 km, 38.9° (Epoch: 20 May)

Date Brightness Start Highest point End Pass type
(mag) Time Alt. Az. Time Alt. Az. Time Alt. Az.
21 May - 01:21:59 10° NNW 01:27:31 31° NE 01:35:17 10° ESE visible
21 May - 03:24:15 10° WNW 03:31:44 56° SW 03:43:04 10° SE visible
21 May - 05:32:30 10° WSW 05:39:02 18° SSW 05:46:53 10° S visible
21 May - 12:03:27 10° SSW 12:13:55 25° SSE 12:22:15 10° E daylight
21 May - 14:08:20 10° SW 14:20:47 77° SE 14:28:54 10° NE daylight
21 May - 16:17:47 10° W 16:24:50 23° NW 16:30:10 10° N daylight
22 May - 00:47:58 10° N 00:52:37 23° NE 00:58:44 10° E night (unlit)
22 May - 02:49:24 10° WNW 02:56:23 66° SW 03:07:12 10° SE visible
22 May - 04:56:33 10° WSW 05:03:09 19° SSW 05:11:21 10° SSE visible
22 May - 11:27:53 10° SSW 11:37:57 22° SSE 11:46:19 10° ESE daylight
22 May - 13:32:21 10° SW 13:45:20 67° SE 13:54:01 10° ENE daylight
22 May - 15:40:57 10° WSW 15:49:48 31° NW 15:56:08 10° NNE daylight
23 May - 00:14:17 10° N 00:17:45 16° NE 00:21:53 10° E night (unlit)
23 May - 02:14:40 10° NW 02:21:11 78° SW 02:31:19 10° SE visible
23 May - 04:20:52 10° WSW 04:27:23 22° SSW 04:35:47 10° SSE visible
23 May - 10:52:23 10° SSW 11:01:51 20° SSE 11:10:05 10° ESE daylight
23 May - 12:56:23 10° SW 13:09:45 58° SE 13:19:01 10° ENE daylight
23 May - 15:04:17 10° WSW 15:14:42 40° NW 15:21:53 10° NNE daylight
23 May - 23:41:59 10° NE 23:42:50 10° NE 23:43:43 10° NE night (unlit)
24 May - 01:40:03 10° NW 01:46:06 85° NE 01:55:26 10° SE visible
24 May - 03:45:22 10° W 03:51:44 24° SSW 04:00:13 10° SSE visible
24 May - 10:17:03 10° S 10:25:41 17° SSE 10:33:31 10° ESE daylight
24 May - 12:20:30 10° SW 12:34:02 50° SE 12:43:50 10° ENE daylight
24 May - 14:27:46 10° WSW 14:39:30 50° NW 14:47:28 10° NNE daylight
25 May - 01:05:31 10° NW 01:11:07 67° NE 01:19:34 10° SE night (unlit)
25 May - 03:10:04 10° W 03:16:12 27° SSW 03:24:39 10° SSE visible
25 May - 09:41:54 10° S 09:49:25 15° SSE 09:56:30 10° ESE daylight
25 May - 11:44:42 10° SSW 11:58:14 44° SE 12:08:30 10° ENE daylight
25 May - 13:51:20 10° WSW 14:04:12 61° NW 14:12:55 10° NE daylight
25 May - 16:06:03 10° WNW 16:08:31 11° NW 16:10:47 10° NNW daylight
26 May - 00:31:05 10° NNW 00:36:15 50° NE 00:43:40 10° ESE night (unlit)
26 May - 02:34:54 10° W 02:40:48 30° SSW 02:49:06 10° SSE visible
26 May - 09:07:06 10° S 09:13:05 13° SSE 09:18:54 10° SE daylight
26 May - 11:08:59 10° SSW 11:22:19 39° SE 11:32:58 10° E daylight
26 May - 13:15:01 10° SW 13:28:47 73° NW 13:38:13 10° NE daylight
26 May - 15:27:18 10° W 15:33:17 16° NW 15:38:13 10° N daylight
26 May - 23:56:46 10° NNW 00:01:26 36° NE 00:07:45 10° ESE night (unlit)
27 May - 01:59:51 10° W 02:05:30 35° SW 02:13:35 10° SSE visible
27 May - 08:33:04 10° S 08:36:41 11° SSE 08:40:16 10° SE daylight
27 May - 10:33:22 10° SSW 10:46:20 34° SE 10:57:13 10° E daylight
27 May - 12:38:49 10° SW 12:53:14 85° NW 13:03:23 10° NE daylight
27 May - 14:49:41 10° W 14:58:02 22° NW 15:04:31 10° N daylight
27 May - 23:22:35 10° NNW 23:26:39 26° NE 23:31:46 10° E night (unlit)
28 May - 01:24:56 10° WNW 01:30:18 41° SW 01:38:05 10° SSE night (unlit)
28 May - 03:35:42 10° SSW 03:36:57 10° SSW 03:38:15 10° SSW visible
28 May - 09:57:53 10° SSW 10:10:16 30° SE 10:21:12 10° E daylight
28 May - 12:02:44 10° SW 12:17:33 84° SE 12:28:24 10° NE daylight
28 May - 14:12:28 10° W 14:22:43 29° NW 14:30:25 10° N daylight
28 May - 22:48:38 10° N 22:51:53 18° NE 22:55:38 10° E night (unlit)
29 May - 00:50:06 10° WNW 00:55:14 50° SW 01:02:39 10° SE night (unlit)
29 May - 02:58:59 10° SW 03:01:19 11° SSW 03:03:54 10° S visible
29 May - 09:22:33 10° SSW 09:34:09 26° SE 09:44:54 10° E daylight
29 May - 11:26:46 10° SW 11:41:46 74° SE 11:53:16 10° NE daylight
29 May - 13:35:30 10° WSW 13:47:19 36° NW 13:56:05 10° NNE daylight
29 May - 22:15:12 10° NNE 22:17:03 12° NE 22:19:01 10° ENE night (unlit)
30 May - 00:15:21 10° WNW 00:20:16 64° SW 00:27:13 10° SE night (unlit)
30 May - 02:22:54 10° SW 02:25:48 13° SSW 02:29:07 10° S night (unlit)
30 May - 08:47:23 10° SSW 08:57:59 23° SSE 09:08:15 10° E daylight
30 May - 10:50:56 10° SW 11:05:54 65° SE 11:17:59 10° ENE daylight
30 May - 12:58:46 10° WSW 13:11:50 44° NW 13:21:33 10° NNE daylight
30 May - 23:40:40 10° NW 23:45:23 83° SW 23:51:50 10° SE night (unlit)
